Flag for U.S.A. Weather past 2 weeks in Canton, Ohio, U.S.A.

Now
58 °F

Partly sunny.


Feels Like: 56 °F
Forecast: 55 / 72 °F
Wind: 8 mph from North

Location: Akron-Canton Regional Airport

Current Time: Sep 30, 2014 at 8:48:08 PM

Latest Report: Sep 30, 2014 at 7:51 PM


Visibility: 10 mi

Pressure: 29.95 "Hg

Humidity: 78%

Dew point: 51 °F

Location of CantonLocation

Historic Weather in Canton — Graph

°F

Canton temperature yesterday

Maximum temperature yesterday: 80 °F (at 3:51 PM)
Minimum temperature yesterday: 55 °F (at 6:51 AM)
Average temperature yesterday: 66 °F

Past Weeks' High & Low Weather Summary

 TemperatureHumidityPressure
High80 °F (Sep 21, 1:51 PM)93% (Sep 18, 3:51 AM)30.44 "Hg (Sep 18, 3:51 AM)
Low43 °F (Sep 23, 5:51 AM)32% (Sep 21, 2:51 PM)29.66 "Hg (Sep 21, 2:51 PM)
Average61 °F69%30.13 "Hg
* Reported Sep 15 7:51 PM — Sep 30 7:51 PM, Canton, Weather by CustomWeather, © 2014

Note: Actual official high and low records may vary slightly from our data, if they occured in-between our weather recording intervals... More about our weather records

Advertising

Canton weather history for previous 24 hours

 ConditionsComfort  
Time TempWeatherWind HumidityBarometerVisibility
7:51 PM
Sep 30
58 °FPartly sunny.8 mph78%29.95 "Hg10 mi
6:51 PM60 °FPartly sunny.12 mph75%29.93 "Hg10 mi
5:51 PM63 °FBroken clouds.13 mph73%29.91 "Hg10 mi
4:51 PM63 °FPartly sunny.12 mph78%29.91 "Hg8 mi
3:51 PM62 °FPartly sunny.10 mph80%29.90 "Hg8 mi
2:51 PM64 °FPartly sunny.12 mph81%29.90 "Hg10 mi
1:51 PM65 °FMostly cloudy.5 mph78%29.90 "Hg7 mi
12:51 PM63 °FMostly cloudy.6 mph84%29.91 "Hg5 mi
11:51 AM63 °FLight rain. Mostly cloudy.No wind84%29.89 "Hg5 mi
10:51 AM63 °FCloudy.No wind81%29.91 "Hg3 mi
9:51 AM59 °FRain. Fog.3 mph90%29.92 "Hg1 mi
8:51 AM61 °FBroken clouds.3 mph81%29.90 "Hg4 mi
7:58 AM57 °FFog.5 mph88%29.90 "Hg2 mi
6:51 AM54 °FFog.No wind90%29.88 "Hg3 mi
5:51 AM56 °FClear.No wind84%29.87 "Hg7 mi
4:51 AM57 °FClear.No wind83%29.87 "Hg7 mi
3:51 AM59 °FClear.No wind78%29.87 "Hg8 mi
2:51 AM59 °FClear.3 mph78%29.88 "Hg9 mi
1:51 AM60 °FClear.No wind78%29.89 "Hg10 mi
12:51 AM58 °FClear.No wind84%29.90 "Hg10 mi
11:51 PM
Sep 29
59 °FClear.No wind78%29.91 "Hg10 mi
10:51 PM63 °FClear.No wind73%29.91 "Hg10 mi
9:51 PM66 °FClear.3 mph65%29.92 "Hg10 mi
8:51 PM64 °FClear.5 mph68%29.92 "Hg10 mi
Weather by CustomWeather, © 2014

See weather overviewHow to use our weather pages